Date,TemperatureHighF,TemperatureAvgF,TemperatureLowF,DewpointHighF,DewpointAvgF,DewpointLowF,HumidityHigh,HumidityAvg,HumidityLow,PressureMaxIn,PressureMinIn,WindSpeedMaxMPH,WindSpeedAvgMPH,GustSpeedMaxMPH,PrecipitationSumIn
2013-1-1,26.6,23.1,20.1,23.2,20.9,18.9,96,91,86,30.69,30.60,6,1,7,0.00
2013-1-2,25.2,22.7,21.5,21.1,19.5,18.5,90,87,82,30.67,30.54,8,3,9,0.00
2013-1-3,26.7,22.8,21.0,21.5,19.3,17.9,94,87,78,30.54,30.39,6,2,8,0.00
2013-1-4,31.0,25.8,22.4,29.7,24.2,20.9,96,93,86,30.47,30.38,6,1,7,0.05
2013-1-5,26.8,24.9,21.9,25.1,23.5,20.5,96,94,91,30.43,30.28,4,0,5,0.20
2013-1-6,34.6,27.5,21.7,33.6,25.9,20.0,98,94,87,30.29,30.10,7,1,8,0.00
2013-1-7,48.1,41.0,34.5,40.6,37.1,33.5,96,86,74,30.10,29.95,22,7,31,0.23
2013-1-8,45.6,40.1,34.4,41.7,37.1,32.5,97,89,75,30.15,29.90,18,5,21,0.12
2013-1-9,42.8,35.7,30.2,38.6,32.6,26.6,98,89,78,29.90,29.68,15,6,24,0.02
2013-1-10,40.0,25.5,16.4,28.5,21.2,14.5,97,84,56,30.06,29.89,9,2,12,0.00
2013-1-11,36.6,20.6,11.7,22.9,15.6,9.5,95,83,48,30.35,30.06,5,1,6,0.01
2013-1-12,33.9,16.5,7.7,22.2,12.4,5.0,93,84,59,30.47,30.34,3,0,4,0.00
2013-1-13,31.0,13.7,3.4,19.9,9.6,0.5,92,84,61,30.56,30.46,3,0,3,0.00
2013-1-14,34.3,19.2,8.4,25.4,15.6,5.8,93,86,68,30.55,30.41,4,0,5,0.00
2013-1-15,40.8,21.5,12.1,30.8,18.3,10.1,95,88,66,30.70,30.55,4,1,5,0.00
2013-1-16,41.1,23.3,13.0,31.5,20.8,11.0,97,90,66,30.66,30.58,3,1,5,0.00
2013-1-17,26.9,25.0,23.8,25.5,23.8,22.8,96,95,93,30.62,30.46,4,1,4,0.00
2013-1-18,39.2,24.8,17.3,30.9,22.7,15.9,96,92,71,30.46,30.34,3,0,6,0.01
2013-1-19,33.9,22.5,15.2,30.8,21.1,13.4,96,94,84,30.53,30.38,3,1,5,0.00
2013-1-20,25.3,22.6,20.1,24.3,21.4,18.7,96,95,94,30.61,30.50,4,1,5,0.00
2013-1-21,24.3,21.2,18.5,22.7,19.8,17.1,96,94,92,30.50,30.38,5,1,5,0.00
2013-1-22,24.3,21.1,18.6,21.6,19.5,17.1,95,93,88,30.41,30.23,5,2,6,0.00
2013-1-23,26.6,23.3,21.3,23.9,21.6,19.5,95,93,86,30.25,30.05,5,1,6,0.01
2013-1-24,39.1,28.5,15.0,33.7,25.9,13.1,97,90,74,30.31,30.19,4,1,6,0.08
2013-1-25,39.4,34.2,27.6,38.9,33.6,26.9,99,98,94,30.19,29.95,5,1,8,0.05
2013-1-26,39.0,32.2,25.2,35.7,30.6,24.2,98,94,84,30.05,29.95,12,3,13,0.02
2013-1-27,38.2,31.6,24.9,33.0,29.2,23.9,98,91,74,30.09,30.01,11,3,18,0.01
2013-1-28,38.3,34.8,30.0,33.5,32.0,28.1,95,90,82,30.03,29.95,20,7,22,0.17
2013-1-29,42.7,39.6,35.7,36.7,35.3,33.0,94,84,75,30.34,29.95,26,9,30,0.03
2013-1-30,44.7,40.9,36.7,39.4,37.4,34.9,96,87,78,30.36,30.26,30,8,31,0.03
2013-1-31,49.0,38.2,29.3,41.2,35.1,27.9,98,89,70,30.36,30.27,14,2,17,0.00
2013-2-1,51.3,33.4,25.4,41.5,30.0,23.9,98,89,54,30.48,30.32,3,1,4,0.00
2013-2-2,50.5,31.8,21.6,39.4,28.3,20.4,98,88,62,30.50,30.32,5,1,7,0.01
2013-2-3,45.4,32.4,23.8,37.8,30.0,22.6,98,91,71,30.32,30.20,6,1,9,0.00
2013-2-4,48.7,35.5,28.9,39.6,32.8,27.7,97,90,67,30.21,29.97,3,0,4,0.00
2013-2-5,44.4,37.9,27.8,41.5,35.5,26.6,98,91,81,30.00,29.90,12,4,17,0.09
2013-2-6,42.0,37.0,30.2,39.3,34.9,29.3,97,92,84,30.08,29.90,13,4,16,0.02
2013-2-7,43.9,34.0,22.0,35.1,29.3,20.2,98,84,55,30.12,29.90,13,3,18,0.03
2013-2-8,47.2,28.6,16.8,33.3,23.1,14.8,96,82,44,30.24,30.12,9,2,11,0.00
2013-2-9,46.8,30.1,19.7,35.7,26.1,18.1,95,86,61,30.30,30.15,10,2,13,0.01
2013-2-10,50.1,31.2,19.5,35.7,26.2,18.1,97,84,48,30.36,30.25,7,1,10,0.01
2013-2-11,50.9,34.0,22.8,37.9,30.2,21.4,98,87,57,30.33,30.24,12,2,19,0.00
2013-2-12,50.1,38.0,27.1,40.5,34.1,25.6,97,87,66,30.40,30.32,19,4,22,0.00
2013-2-13,50.2,43.3,28.2,39.7,35.3,26.2,93,74,54,30.43,30.28,24,8,30,0.00
2013-2-14,51.5,34.4,25.5,40.2,30.7,24.0,96,87,63,30.55,30.43,7,1,8,0.00
2013-2-15,56.7,35.1,22.7,42.2,30.7,21.2,98,86,57,30.56,30.29,6,1,11,0.01
2013-2-16,49.4,36.9,25.0,42.3,31.3,23.5,98,81,58,30.30,30.12,20,6,24,0.01
2013-2-17,44.6,32.4,20.8,29.7,25.4,19.1,96,77,51,30.21,30.10,14,3,20,0.00
2013-2-18,41.0,31.1,24.4,30.3,26.1,22.3,94,82,62,30.10,29.80,11,2,14,0.00
2013-2-19,47.6,32.8,22.0,30.2,25.7,19.9,95,78,46,29.98,29.75,7,1,10,0.00
2013-2-20,43.5,30.5,16.5,32.9,25.4,14.4,96,83,52,30.07,29.97,12,3,18,0.01
2013-2-21,39.8,35.8,32.1,34.5,32.4,30.2,95,87,70,30.10,30.04,16,7,19,0.05
2013-2-22,39.7,36.4,31.5,38.4,34.0,27.2,96,91,74,30.09,29.79,17,7,18,0.30
2013-2-23,43.7,36.2,31.2,34.4,29.2,24.3,96,77,53,30.34,29.93,30,7,34,0.02
2013-2-24,44.7,34.8,25.4,34.4,28.8,23.1,93,79,61,30.37,30.06,14,3,18,0.00
2013-2-25,42.6,36.1,30.5,35.9,31.5,25.1,96,83,69,30.26,29.98,18,6,26,0.15
2013-2-26,44.1,35.5,26.0,33.3,28.7,22.9,92,77,56,30.36,30.24,16,3,16,0.00
2013-2-27,50.6,42.6,37.8,39.1,36.0,32.0,93,78,59,30.29,30.23,14,6,19,0.03
2013-2-28,49.3,43.8,38.4,47.3,42.4,37.5,97,95,90,30.39,30.22,12,3,16,0.44
2013-3-1,53.1,47.6,33.9,48.2,44.2,32.4,97,88,72,30.40,30.30,13,5,16,0.04
2013-3-2,53.5,39.9,29.5,45.7,36.1,28.2,98,87,67,30.30,30.06,17,4,19,0.01
2013-3-3,47.8,34.8,20.4,30.2,24.3,17.0,92,68,39,30.26,30.09,21,4,22,0.00
2013-3-4,48.7,32.2,17.2,26.7,18.5,11.8,94,63,23,30.30,30.05,8,2,12,0.00
2013-3-5,39.0,33.3,23.9,33.8,26.8,19.9,94,78,55,30.05,29.83,10,3,13,0.07
2013-3-6,36.7,34.5,32.9,34.7,33.1,31.9,97,95,90,29.93,29.60,19,4,21,0.48
2013-3-7,49.8,37.5,23.7,36.8,30.5,22.0,96,78,41,30.07,29.93,11,3,15,0.00
2013-3-8,54.4,33.3,20.2,35.2,25.4,18.3,97,78,29,30.23,30.06,6,1,8,0.01
2013-3-9,60.0,35.9,19.2,33.3,25.8,17.5,97,73,27,30.47,30.23,14,2,15,0.01
2013-3-10,51.8,37.4,23.0,39.8,31.1,20.7,94,79,48,30.48,30.33,20,4,28,0.00
2013-3-11,50.2,38.8,27.2,44.0,35.7,26.0,97,89,69,30.41,30.23,7,2,10,0.00
2013-3-12,56.0,49.0,41.9,46.6,42.4,39.0,94,79,55,30.23,30.10,13,6,22,0.00
2013-3-13,63.1,50.5,37.6,47.2,41.6,35.0,93,73,52,30.20,30.09,13,3,15,0.00
2013-3-14,46.1,45.9,45.6,39.3,38.2,37.1,78,75,72,30.10,30.10,3,2,3,0.00
2013-3-15,46.6,46.4,46.1,37.1,36.0,34.9,72,69,65,30.11,30.10,5,4,5,0.00
2013-3-16,47.1,46.9,46.6,34.9,33.8,32.7,65,62,59,30.12,30.11,8,7,8,0.00
2013-3-17,47.6,47.4,47.1,32.7,31.6,30.5,59,55,52,30.13,30.12,10,9,10,0.00
2013-3-18,48.4,44.0,23.9,31.7,29.0,20.5,92,57,45,30.22,30.12,14,9,20,0.00
2013-3-19,47.4,33.5,22.1,35.4,26.9,19.4,96,79,43,30.22,29.81,8,1,13,0.35
2013-3-20,48.3,35.9,32.0,42.2,33.3,27.7,98,91,66,30.00,29.57,23,4,29,0.56
2013-3-21,43.7,35.5,31.1,32.9,28.3,25.0,90,76,52,30.18,29.99,17,8,25,0.00
2013-3-22,44.8,32.8,21.4,27.8,23.3,14.1,94,71,30,30.36,30.17,17,4,21,0.00
2013-3-23,46.1,31.0,20.3,26.0,21.7,17.6,92,72,34,30.39,30.29,8,1,9,0.00
2013-3-24,46.7,32.0,19.1,28.6,22.8,16.4,93,72,40,30.35,30.20,9,1,11,0.00
2013-3-25,56.6,41.3,25.2,33.4,27.7,21.1,91,61,37,30.20,29.97,12,2,12,0.00
2013-3-26,52.7,44.0,36.1,39.8,34.8,30.9,87,71,48,30.01,29.94,7,1,9,0.00
2013-3-27,58.1,45.0,38.8,44.7,39.4,37.2,95,82,50,30.00,29.91,6,0,10,0.00
2013-3-28,59.0,45.0,35.8,47.1,39.9,33.7,98,84,50,30.13,30.00,7,1,9,0.01
2013-3-29,63.9,46.9,33.5,45.1,38.3,31.3,96,75,43,30.22,30.13,12,2,19,0.00
2013-3-30,68.6,48.8,29.0,45.6,38.2,27.8,98,72,37,30.26,30.08,8,2,12,0.00
2013-3-31,70.6,47.5,28.1,46.7,37.2,26.7,98,73,34,30.11,29.91,10,2,10,0.00
2013-4-1,66.4,46.1,28.8,51.7,39.8,27.6,98,81,52,30.08,29.96,17,3,24,0.01
2013-4-2,61.6,45.3,28.1,46.8,38.4,26.9,98,79,54,30.14,30.08,18,3,21,0.00
2013-4-3,64.9,46.4,26.6,45.3,37.5,25.2,98,75,38,30.16,29.96,10,2,12,0.01
2013-4-4,52.8,49.3,42.5,50.6,45.7,40.1,95,88,73,29.96,29.71,17,3,17,0.40
2013-4-5,52.5,47.5,43.5,48.1,44.8,41.6,95,90,82,29.91,29.82,16,6,18,0.31
2013-4-6,50.0,43.7,38.8,44.5,40.4,36.9,96,89,75,29.94,29.78,18,6,20,0.26
2013-4-7,47.5,38.7,32.7,41.7,35.9,31.7,98,90,71,29.83,29.56,19,6,25,0.60
2013-4-8,53.7,40.1,27.0,41.7,34.2,25.8,97,81,57,30.25,29.83,12,3,19,0.00
2013-4-9,58.3,41.8,23.7,41.9,31.9,22.2,97,71,43,30.35,30.22,13,3,16,0.00
2013-4-10,55.4,47.8,39.9,49.4,39.4,32.1,95,73,52,30.23,29.95,21,7,29,0.08
2013-4-11,55.6,38.8,25.9,39.0,31.0,24.0,95,76,42,30.23,30.12,17,2,19,0.00
2013-4-12,51.7,36.6,22.2,38.7,31.0,20.5,95,82,51,30.16,29.75,17,4,20,0.03
2013-4-13,45.1,38.7,32.8,36.9,31.1,26.3,88,74,58,29.98,29.74,22,8,27,0.00
2013-4-14,49.7,37.8,26.4,37.2,30.2,24.2,94,76,46,29.99,29.86,18,4,22,0.04
2013-4-15,49.3,35.4,24.2,38.0,29.8,22.3,96,82,50,30.15,29.91,12,2,13,0.00
2013-4-16,48.2,34.7,21.5,35.1,26.5,19.8,97,75,45,30.42,30.15,10,2,13,0.01
2013-4-17,56.5,37.6,18.4,35.4,27.5,16.4,95,71,38,30.50,30.38,14,3,18,0.00
2013-4-18,55.9,43.8,30.2,41.7,36.5,27.2,93,77,57,30.41,30.24,15,5,22,0.00
2013-4-19,57.2,48.7,44.8,46.6,42.8,39.5,93,81,65,30.24,30.03,19,7,24,0.07
2013-4-20,54.6,47.4,42.5,41.6,38.8,35.8,86,73,58,30.22,30.13,20,6,24,0.00
2013-4-21,55.3,44.7,32.0,40.6,36.1,29.9,94,73,55,30.27,30.09,24,6,27,0.00
2013-4-22,57.4,41.1,21.8,32.1,24.5,18.6,96,60,23,30.49,30.27,12,3,21,0.01
2013-4-23,62.4,40.1,19.1,35.3,25.9,16.7,93,64,23,30.44,30.18,12,2,18,0.00
2013-4-24,67.5,45.1,22.5,38.0,28.9,20.0,93,61,22,30.35,30.01,8,2,11,0.00
2013-4-25,75.0,52.3,31.3,45.3,37.1,27.9,91,62,25,30.10,29.96,13,2,18,0.00
2013-4-26,77.5,55.4,30.0,48.2,36.6,28.2,96,58,19,30.18,30.10,17,4,21,0.00
2013-4-27,67.9,54.5,37.8,41.0,34.8,25.7,81,51,21,30.17,30.07,20,6,27,0.00
2013-4-28,58.6,52.0,47.8,43.9,39.3,34.0,82,63,41,30.13,29.93,17,9,29,0.00
2013-4-29,52.3,45.4,31.8,42.2,33.8,23.5,89,65,35,30.05,29.88,23,9,35,0.02
2013-4-30,53.1,36.9,18.9,29.8,23.0,15.5,93,62,28,30.42,30.05,14,2,20,0.00
2013-5-1,62.5,41.0,17.3,32.3,25.5,13.3,92,60,27,30.59,30.42,7,1,13,0.00
2013-5-2,72.6,50.1,25.1,43.5,31.5,22.4,93,57,17,30.59,30.24,8,1,9,0.00
2013-5-3,75.4,54.6,31.4,45.6,37.8,28.5,93,60,24,30.28,30.12,9,2,12,0.00
2013-5-4,72.9,57.3,32.7,42.9,34.0,29.3,96,49,21,30.19,29.97,23,6,27,0.00
2013-5-5,76.1,61.6,43.7,39.4,35.1,32.2,78,40,22,29.97,29.76,21,6,25,0.00
2013-5-6,84.4,60.5,34.7,51.0,40.4,31.5,92,55,18,29.84,29.67,8,2,12,0.00
2013-5-7,80.6,60.9,37.3,55.9,47.5,34.9,94,65,31,29.88,29.75,15,4,18,0.00
2013-5-8,81.2,61.2,39.0,58.1,50.0,37.2,97,70,38,30.01,29.88,12,3,15,0.00
2013-5-9,84.9,62.9,38.8,57.4,48.1,37.2,98,66,19,30.07,29.96,12,3,13,0.00
2013-5-10,87.3,64.5,39.3,56.3,47.6,36.9,94,61,22,30.12,30.01,12,2,12,0.00
2013-5-11,85.6,67.6,48.1,57.5,50.6,44.9,92,60,26,30.11,29.92,14,2,18,0.00
2013-5-12,73.2,63.6,57.3,57.8,51.6,42.8,79,66,40,30.00,29.95,17,6,22,0.00
2013-5-13,62.4,55.4,45.2,53.9,46.2,36.0,86,72,58,30.13,29.95,20,8,29,0.06
2013-5-14,64.1,50.2,35.2,40.8,35.9,26.2,93,62,26,30.17,30.03,14,4,17,0.00
2013-5-15,58.5,46.7,35.6,47.2,40.4,32.8,93,79,60,30.08,29.97,16,3,18,0.01
2013-5-16,67.9,49.4,29.8,51.8,41.8,28.5,98,78,40,30.00,29.85,12,3,15,0.15
2013-5-17,61.2,51.9,39.8,45.9,43.2,36.0,89,73,46,30.01,29.90,15,5,19,0.06
2013-5-18,59.3,49.1,34.4,46.0,40.8,32.9,96,74,55,30.20,30.01,15,5,21,0.00
2013-5-19,66.8,49.5,29.8,47.6,39.6,28.5,97,72,44,30.31,30.20,14,3,21,0.00
2013-5-20,74.3,54.0,30.0,48.0,39.5,28.5,97,64,28,30.29,29.83,8,2,11,0.00
2013-5-21,57.8,47.9,38.6,45.6,40.0,35.5,90,75,49,29.83,29.67,25,7,25,0.08
2013-5-22,44.2,40.2,37.6,40.4,37.3,34.8,95,89,83,29.98,29.83,15,6,21,0.42
2013-5-23,50.1,43.2,37.6,44.1,39.3,36.2,96,86,71,30.03,29.98,10,2,12,0.15
2013-5-24,56.3,47.1,36.6,47.3,41.7,33.9,97,83,55,30.04,29.97,17,5,19,0.13
2013-5-25,61.4,47.7,30.4,47.0,39.6,29.1,97,76,51,30.06,29.94,15,3,17,0.00
2013-5-26,62.6,51.9,43.6,51.5,45.2,41.0,96,79,53,29.98,29.93,12,3,22,0.15
2013-5-27,53.2,47.7,38.7,51.6,45.6,36.7,95,92,81,29.96,29.76,7,1,8,0.48
2013-5-28,59.2,51.1,42.2,48.6,44.2,39.2,93,78,61,29.88,29.75,21,6,22,0.00
2013-5-29,56.3,48.7,43.0,50.7,44.2,40.8,96,85,65,29.96,29.66,15,5,22,0.31
2013-5-30,59.6,50.6,40.0,45.6,40.9,36.4,88,70,51,30.19,29.96,18,7,19,0.00
2013-5-31,67.3,50.7,29.8,48.3,40.0,28.2,97,71,42,30.29,30.18,11,2,12,0.00
2013-6-1,72.9,53.9,34.0,54.1,43.4,32.7,97,71,37,30.22,29.98,13,3,18,0.00
2013-6-2,70.2,54.9,35.1,49.4,42.5,33.3,97,67,37,30.00,29.90,14,2,16,0.00
2013-6-3,75.0,55.5,33.4,53.5,42.6,31.9,97,67,32,30.04,29.92,14,2,16,0.00
2013-6-4,78.8,60.1,37.0,54.7,45.4,34.9,96,64,32,30.08,29.97,6,1,14,0.00
2013-6-5,83.6,64.1,40.3,58.4,49.6,38.7,97,65,30,30.02,29.88,13,3,15,0.00
2013-6-6,83.5,66.6,46.5,63.0,52.8,44.9,97,65,36,29.94,29.83,12,3,19,0.00
2013-6-7,76.0,61.6,45.6,55.4,49.0,42.5,96,66,38,30.01,29.90,21,4,28,0.00
2013-6-8,80.7,60.7,37.7,52.3,44.9,35.9,96,61,32,30.04,29.91,18,4,24,0.00
2013-6-9,74.9,58.1,37.3,50.9,43.8,35.1,97,63,35,29.96,29.84,19,4,21,0.00
2013-6-10,72.2,55.0,33.1,51.9,42.1,31.3,96,65,28,29.89,29.74,18,4,20,0.00
2013-6-11,60.9,52.9,39.5,43.6,40.0,35.3,90,62,48,30.06,29.82,18,7,29,0.00
2013-6-12,64.7,50.7,31.6,45.0,39.4,29.9,96,68,43,30.10,30.04,13,4,19,0.00
2013-6-13,63.6,50.1,33.4,47.6,41.3,31.9,97,74,48,30.18,30.08,17,4,20,0.00
2013-6-14,69.9,54.1,34.3,51.0,43.9,32.8,97,72,41,30.20,29.99,12,3,14,0.00
2013-6-15,79.9,60.9,36.1,55.3,45.3,34.8,98,63,25,29.99,29.85,9,2,16,0.01
2013-6-16,81.2,63.7,47.4,59.6,51.3,45.8,96,68,32,30.00,29.88,11,3,16,0.01
2013-6-17,75.8,63.7,49.5,54.3,48.3,44.5,92,61,35,30.00,29.83,16,4,17,0.00
2013-6-18,68.2,59.4,50.6,48.9,43.6,37.7,83,58,33,29.90,29.80,18,6,18,0.00
2013-6-19,63.2,53.9,41.7,46.6,43.3,38.1,93,68,49,29.97,29.82,19,6,30,0.00
2013-6-20,61.3,54.3,49.7,47.2,44.1,41.4,83,69,54,30.05,29.92,19,7,27,0.00
2013-6-21,67.6,56.4,44.3,51.2,47.8,42.7,97,75,51,30.09,30.04,11,3,13,0.01
2013-6-22,75.8,60.1,41.3,58.4,48.5,39.7,97,70,35,30.07,29.84,7,1,12,0.00
2013-6-23,65.3,59.4,53.9,58.2,55.2,51.7,96,86,69,29.84,29.62,7,1,9,0.16
2013-6-24,64.6,57.5,53.1,56.3,51.2,48.4,97,80,59,29.69,29.59,16,5,16,0.02
2013-6-25,64.6,55.4,50.6,56.3,52.2,48.9,97,90,67,29.86,29.69,6,2,8,0.27
2013-6-26,67.9,57.3,49.1,57.9,52.8,48.0,97,86,65,30.06,29.86,10,2,12,0.01
2013-6-27,79.1,63.1,50.9,62.0,55.6,49.2,97,79,47,30.15,30.05,9,1,16,0.00
2013-6-28,88.2,70.3,49.7,65.8,58.7,48.6,98,71,38,30.17,29.95,7,1,9,0.00
2013-6-29,87.7,72.5,58.9,69.5,62.2,57.0,95,73,40,30.00,29.88,10,2,13,0.00
2013-6-30,93.9,76.1,54.0,67.0,60.6,52.9,98,64,31,29.96,29.81,9,2,12,0.00
2013-7-1,94.5,79.4,60.9,68.9,61.9,55.0,88,57,32,29.88,29.80,11,3,13,0.01
2013-7-2,94.2,75.5,55.8,72.8,61.4,49.3,97,67,23,29.95,29.84,14,3,15,0.00
2013-7-3,87.1,71.4,53.0,61.1,54.4,46.9,95,58,29,29.98,29.84,15,4,19,0.00
2013-7-4,80.5,65.0,50.1,57.0,49.8,45.6,88,61,33,29.93,29.81,12,3,17,0.00
2013-7-5,76.8,60.4,46.1,56.0,48.7,44.5,97,68,38,29.90,29.80,15,3,19,0.00
2013-7-6,81.6,61.2,43.4,59.0,50.1,42.4,96,72,33,29.90,29.75,8,1,11,0.00
2013-7-7,82.6,66.2,45.9,62.3,53.4,44.8,97,68,31,29.85,29.72,11,3,15,0.00
2013-7-8,82.5,62.9,44.5,60.6,52.4,43.3,98,72,35,29.98,29.81,12,2,15,0.00
2013-7-9,89.4,69.2,45.5,61.8,52.2,44.0,96,63,24,30.04,29.87,8,1,12,0.00
2013-7-11,75.4,75.2,75.0,57.7,57.6,57.5,55,54,54,29.91,29.89,5,5,9,0.00
2013-7-12,75.0,74.8,74.6,57.5,57.4,57.4,55,55,55,29.92,29.91,6,6,10,0.00
2013-7-13,74.6,74.4,74.2,57.4,57.3,57.2,56,55,55,29.93,29.92,6,6,10,0.00
2013-7-14,74.2,74.0,73.8,57.2,57.1,57.1,56,56,56,29.95,29.93,7,7,10,0.00
2013-7-15,73.8,73.6,73.4,57.1,57.0,56.9,56,56,56,29.96,29.95,8,8,11,0.00
2013-7-16,73.4,73.2,73.0,56.9,56.8,56.7,57,57,56,29.97,29.96,9,8,11,0.00
2013-7-17,82.8,73.6,49.9,58.0,51.2,36.5,80,48,21,30.04,29.97,15,7,18,0.00
2013-7-18,89.7,65.2,45.0,58.8,48.4,32.5,94,62,14,30.11,29.95,9,2,12,0.00
2013-7-19,91.7,67.7,43.3,61.0,50.0,40.8,94,60,20,30.03,29.85,11,2,15,0.00
2013-7-20,89.5,66.5,44.2,63.0,50.3,41.7,94,62,22,29.93,29.76,12,2,15,0.00
2013-7-21,87.4,65.4,39.2,62.0,51.5,36.5,94,65,34,29.83,29.71,16,4,18,0.00
2013-7-22,86.7,65.7,42.2,63.8,53.4,40.6,97,69,38,29.89,29.79,15,3,15,0.00
2013-7-23,92.5,67.8,41.3,61.6,51.6,39.2,96,63,16,29.96,29.82,8,2,12,0.00
2013-7-24,90.7,69.3,44.9,63.3,52.9,42.9,96,62,24,29.94,29.83,12,3,17,0.00
2013-7-25,92.2,67.5,41.6,58.6,49.3,39.3,96,60,19,29.97,29.88,13,2,17,0.00
2013-7-26,91.5,66.9,38.9,55.7,44.5,35.5,91,53,14,30.04,29.91,13,2,17,0.00
2013-7-27,81.8,63.2,42.4,56.2,47.8,39.2,91,61,34,30.01,29.83,18,4,21,0.00
2013-7-28,78.2,60.3,38.9,57.7,48.7,37.2,96,69,38,29.89,29.78,18,5,22,0.00
2013-7-29,81.8,61.9,38.9,56.5,48.7,37.3,97,67,30,29.91,29.82,11,2,14,0.00
2013-7-30,83.2,67.2,47.4,58.9,52.4,41.6,95,64,24,30.01,29.91,10,2,11,0.00
2013-7-31,84.4,67.5,55.0,63.2,56.3,45.5,89,70,26,30.01,29.88,10,1,11,0.00
2013-8-1,74.1,61.1,49.4,59.2,53.3,47.8,96,77,55,29.98,29.87,15,5,20,0.00
2013-8-2,71.8,60.2,45.1,57.9,52.0,42.6,96,76,59,30.02,29.96,14,4,17,0.00
2013-8-3,81.8,63.4,45.6,61.7,53.2,44.2,97,73,39,30.06,29.93,6,1,10,0.00
2013-8-4,86.6,66.7,45.9,60.5,53.0,44.8,98,68,27,30.01,29.83,9,1,11,0.00
2013-8-5,88.1,70.1,47.8,63.9,55.8,46.1,96,65,35,29.94,29.80,12,2,14,0.00
2013-8-6,88.2,67.7,45.8,61.7,53.0,44.2,96,65,27,29.92,29.79,11,2,15,0.00
2013-8-7,89.6,67.4,42.1,59.6,50.5,39.5,95,61,18,29.93,29.80,14,3,19,0.00
2013-8-8,87.1,66.8,48.8,64.5,55.2,46.3,95,70,30,29.90,29.77,10,2,12,0.00
2013-8-9,89.5,69.1,51.7,64.7,57.8,49.3,95,72,29,29.96,29.69,21,2,31,0.91
2013-8-10,80.0,66.0,51.5,67.8,59.9,50.4,98,82,58,29.92,29.82,16,4,18,0.01
2013-8-11,78.1,64.9,51.3,62.3,54.7,48.2,97,73,41,29.97,29.88,11,2,12,0.00
2013-8-12,80.9,62.5,42.5,59.5,50.3,40.9,97,69,33,29.99,29.90,11,3,16,0.00
2013-8-13,86.4,63.3,41.1,57.6,47.9,39.5,97,65,20,30.03,29.88,7,1,10,0.00
2013-8-14,84.8,64.2,45.3,59.9,49.0,43.0,94,63,33,29.93,29.84,11,2,15,0.00
2013-8-15,82.5,66.4,51.7,61.9,54.6,47.9,89,67,44,29.91,29.84,13,3,16,0.00
2013-8-16,83.2,68.3,59.3,65.1,58.3,54.1,92,72,43,29.95,29.87,16,3,16,0.00
2013-8-17,78.2,66.0,47.9,62.1,54.3,46.3,97,69,39,30.00,29.90,16,3,20,0.00
2013-8-18,83.1,65.2,44.4,57.9,52.0,42.9,97,67,31,30.05,29.91,20,3,22,0.00
2013-8-19,80.6,63.8,44.5,58.4,51.8,42.9,97,69,39,30.01,29.91,18,3,21,0.00
2013-8-20,83.9,61.6,41.3,56.5,47.9,37.0,98,67,20,30.04,29.90,8,2,10,0.00
2013-8-21,87.2,63.2,41.9,64.4,49.4,39.8,96,67,24,30.02,29.88,5,1,8,0.00
2013-8-22,76.5,61.8,44.6,61.5,52.0,42.2,94,72,47,29.92,29.81,9,2,12,0.00
2013-8-23,76.0,66.3,50.8,60.0,55.2,45.7,91,69,38,29.82,29.75,16,5,19,0.02
2013-8-24,76.5,59.8,42.7,58.8,49.5,41.3,97,72,43,29.84,29.76,14,3,19,0.00
2013-8-25,69.3,57.5,49.7,59.8,53.4,47.2,96,87,59,29.88,29.81,8,1,13,0.17
2013-8-26,73.7,59.8,48.4,60.5,52.8,47.3,98,80,48,29.93,29.87,14,2,17,0.01
2013-8-27,81.1,63.6,46.0,62.0,53.3,44.1,97,72,41,29.94,29.72,8,1,10,0.00
2013-8-28,81.8,67.3,53.3,65.5,56.1,50.3,94,70,41,29.84,29.75,9,2,12,0.00
2013-8-29,75.7,65.5,58.0,65.2,57.5,54.4,92,76,55,29.99,29.78,11,3,20,0.15
2013-8-30,78.0,65.9,49.2,58.5,54.7,46.7,92,69,42,30.08,29.96,15,5,17,0.00
2013-8-31,86.7,62.6,41.7,60.4,51.0,40.4,98,72,31,30.03,29.82,8,1,9,0.00
2013-9-1,87.1,65.8,44.7,61.1,51.3,42.8,97,65,31,29.85,29.70,7,1,12,0.00
2013-9-2,81.6,63.8,44.2,60.9,51.9,42.0,96,69,36,29.84,29.75,19,2,19,0.00
2013-9-3,79.7,66.1,54.4,61.2,54.8,50.3,93,70,42,29.92,29.82,12,2,16,0.00
2013-9-4,81.9,63.7,49.4,60.5,53.8,47.2,94,73,41,29.94,29.84,12,2,16,0.00
2013-9-5,77.3,63.6,54.9,63.8,57.6,52.4,96,82,59,29.96,29.77,19,4,24,0.24
2013-9-6,63.9,57.3,49.5,58.6,54.3,47.6,97,90,77,30.10,29.92,19,5,20,0.39
2013-9-7,76.5,59.0,44.3,61.6,51.8,43.5,99,80,43,30.09,29.95,5,1,8,0.01
2013-9-8,79.4,62.5,46.6,60.5,54.6,45.5,98,78,46,30.06,29.92,9,1,10,0.00
2013-9-9,85.7,63.7,44.3,63.3,53.9,43.2,98,75,33,29.98,29.83,8,2,10,0.01
2013-9-10,87.8,66.5,45.8,60.7,52.7,44.5,99,67,30,29.95,29.85,11,2,11,0.00
2013-9-11,91.8,67.6,47.0,62.4,52.0,45.1,98,64,26,29.97,29.87,9,1,11,0.00
2013-9-12,92.2,67.2,46.1,63.8,53.9,44.5,97,69,28,29.94,29.79,6,1,7,0.00
2013-9-13,87.0,66.4,47.9,66.8,57.8,46.7,99,77,46,29.84,29.68,10,2,14,0.00
2013-9-14,92.0,68.2,47.0,65.7,54.7,45.6,98,68,28,29.80,29.66,10,1,11,0.00
2013-9-15,84.7,67.1,55.4,65.5,57.0,52.1,92,72,37,29.74,29.56,18,4,24,0.00
2013-9-16,67.4,59.4,44.5,55.5,51.3,42.6,95,75,59,29.86,29.74,21,7,22,0.00
2013-9-17,66.0,52.3,39.1,52.5,44.4,37.7,98,77,46,29.88,29.74,17,4,22,0.00
2013-9-18,66.6,49.7,35.2,47.9,40.7,33.4,97,74,41,30.05,29.87,12,2,16,0.00
2013-9-19,75.5,52.1,29.6,49.6,38.7,28.1,97,67,26,30.08,29.84,10,1,12,0.00
2013-9-20,74.8,54.0,34.0,50.5,43.0,32.1,96,71,31,29.84,29.59,13,2,19,0.02
2013-9-21,68.3,54.5,39.7,53.5,47.1,38.4,98,78,48,29.70,29.61,12,4,18,0.00
2013-9-22,54.2,51.4,49.7,50.3,47.1,45.7,96,85,75,29.78,29.65,9,5,17,0.28
2013-9-23,54.8,51.5,49.4,50.8,48.0,45.4,95,88,80,29.94,29.78,12,6,16,0.09
2013-9-24,57.1,49.2,43.5,47.3,44.0,41.1,95,83,58,29.92,29.79,13,4,16,0.01
2013-9-25,59.0,46.3,34.2,49.1,42.7,32.7,97,88,58,29.97,29.79,9,1,11,0.11
2013-9-26,60.8,42.4,28.8,49.0,37.5,27.5,98,85,51,30.14,29.97,9,1,17,0.01
2013-9-27,51.3,43.0,29.5,48.2,41.1,28.2,98,93,84,30.14,29.93,14,3,20,0.12
2013-9-28,57.4,51.9,46.0,55.7,50.5,44.4,98,95,87,29.93,29.45,14,3,16,1.27
2013-9-29,49.1,47.2,45.5,48.0,45.8,42.8,97,95,84,29.65,29.35,16,4,19,1.65
2013-9-30,50.3,45.8,41.1,48.6,43.1,39.2,96,90,83,29.95,29.51,18,7,20,0.45
2013-10-1,48.9,44.2,38.2,44.7,41.3,36.1,96,90,73,30.18,29.95,13,5,20,0.21
2013-10-2,52.7,41.9,33.9,45.3,38.9,32.9,98,89,67,30.18,30.03,10,2,12,0.01
2013-10-3,59.1,43.0,32.9,46.0,38.3,31.5,98,85,50,30.44,30.13,9,2,11,0.01
2013-10-4,61.9,41.1,26.6,46.3,34.6,25.6,98,82,38,30.54,30.43,7,0,8,0.01
2013-10-5,67.2,42.8,26.0,49.5,34.7,24.8,98,79,30,30.46,30.25,4,0,5,0.00
2013-10-6,71.2,46.6,26.4,48.2,34.7,25.2,98,69,27,30.28,29.97,10,2,14,0.01
2013-10-7,55.5,50.3,45.8,48.8,42.3,34.6,93,75,46,30.03,29.90,15,6,26,0.04
2013-10-8,53.2,44.9,29.7,44.3,39.4,28.2,95,81,61,30.01,29.88,17,6,23,0.03
2013-10-9,57.9,41.4,25.3,44.5,35.1,23.8,97,80,47,30.12,29.96,9,2,12,0.00
2013-10-10,62.3,43.4,28.8,46.1,37.8,27.5,98,83,45,30.05,29.90,16,3,19,0.01
2013-10-11,54.5,39.6,26.9,43.7,35.2,25.6,98,85,58,30.15,30.05,9,1,12,0.00
2013-10-12,49.4,40.8,32.7,45.6,39.1,31.3,97,94,81,30.19,30.05,4,0,7,0.10
2013-10-13,60.8,40.8,28.0,45.5,35.1,27.0,98,83,44,30.34,30.19,7,1,10,0.00
2013-10-14,61.1,39.4,24.4,43.5,32.1,22.9,98,79,38,30.45,30.34,7,1,9,0.01
2013-10-15,60.9,38.2,23.5,41.2,31.1,21.9,97,80,38,30.46,30.21,6,0,8,0.01
2013-10-16,63.8,40.1,24.5,44.0,33.3,23.0,97,81,40,30.23,30.16,5,1,7,0.00
2013-10-17,63.7,39.7,24.9,44.7,33.5,23.4,98,82,43,30.32,30.23,7,0,8,0.01
2013-10-18,64.7,39.8,23.6,44.4,33.2,22.1,98,81,40,30.34,30.21,4,0,9,0.01
2013-10-19,69.5,41.0,23.3,48.1,34.5,21.8,98,82,40,30.23,30.08,3,0,5,0.00
2013-10-20,72.9,43.9,26.5,49.4,36.9,25.3,98,81,34,30.22,30.13,5,0,5,0.01
2013-10-21,73.2,45.5,28.5,49.9,38.1,27.5,98,80,33,30.23,30.12,5,0,7,0.00
2013-10-22,70.7,44.0,27.8,51.0,38.1,26.8,98,83,42,30.22,30.08,3,0,5,0.01
2013-10-23,69.9,43.8,27.3,50.8,38.1,26.3,98,84,48,30.16,30.06,4,0,4,0.01
2013-10-24,69.1,42.7,26.6,50.5,37.2,25.4,98,84,45,30.16,30.06,4,0,5,0.00
2013-10-25,68.8,42.2,28.0,52.0,37.9,27.0,99,87,53,30.28,30.15,4,0,5,0.01
2013-10-26,64.6,41.5,27.7,50.0,37.4,26.7,98,87,55,30.32,30.14,6,0,6,0.02
2013-10-27,54.0,42.0,33.9,43.7,39.6,32.9,98,91,65,30.13,29.77,19,3,29,0.25
2013-10-28,48.9,43.9,30.5,41.0,28.9,23.1,80,56,42,29.95,29.85,24,8,31,0.00
2013-10-29,52.3,33.7,20.6,30.4,24.5,17.8,94,72,37,30.08,29.94,7,1,8,0.00
2013-10-30,58.0,36.7,18.8,39.3,29.2,16.9,95,77,43,30.15,30.07,16,2,18,0.00
2013-10-31,59.3,48.0,30.5,46.7,40.3,29.0,96,75,56,30.25,30.08,20,7,26,0.00
2013-11-1,62.1,41.1,26.9,46.3,36.4,25.9,98,85,47,30.31,29.94,3,0,4,0.07
2013-11-2,48.4,42.6,36.5,45.7,39.4,32.1,98,88,76,29.94,29.64,17,5,27,0.60
2013-11-3,45.6,38.0,24.3,35.7,31.9,21.8,94,79,58,30.09,29.91,22,8,28,0.00
2013-11-4,42.5,33.1,20.7,36.9,29.8,19.0,95,88,66,30.20,30.08,6,1,7,0.09
2013-11-5,50.4,42.6,36.4,46.6,38.9,35.3,97,87,73,30.20,30.09,20,5,23,0.10
2013-11-6,48.5,43.2,36.3,44.8,40.6,34.0,96,90,74,30.32,30.18,7,1,11,0.27
2013-11-7,45.9,41.8,39.1,43.3,39.9,38.2,98,93,84,30.18,29.85,16,4,24,0.42
2013-11-8,48.3,42.1,31.0,41.9,37.7,29.7,96,85,76,30.16,29.99,21,6,24,0.02
2013-11-9,47.8,38.4,29.6,41.2,35.7,28.5,98,90,69,30.18,30.11,3,0,4,0.00
2013-11-10,52.3,41.0,32.9,43.8,38.4,31.6,98,91,72,30.24,30.12,4,0,6,0.01
2013-11-11,48.4,41.1,33.7,42.5,38.3,32.7,97,90,75,30.34,30.24,8,1,10,0.00
2013-11-12,54.2,41.5,32.3,50.1,39.8,31.3,98,94,84,30.40,30.24,8,2,10,0.13
2013-11-13,55.9,39.1,26.6,45.5,35.9,25.4,98,89,60,30.45,30.29,9,1,12,0.01
2013-11-14,45.8,32.0,23.5,39.7,29.9,22.0,98,92,76,30.29,30.06,5,0,7,0.01
2013-11-15,43.4,33.6,21.7,38.1,31.3,20.2,97,91,75,30.07,29.42,20,5,25,0.14
2013-11-16,44.6,39.7,35.9,38.2,34.0,30.8,96,80,62,29.75,29.38,17,6,22,0.08
2013-11-17,44.2,41.3,38.1,42.1,39.4,34.1,96,93,84,29.95,29.76,13,5,16,0.18
2013-11-18,50.8,45.7,43.5,45.9,43.0,41.1,97,91,80,29.94,29.66,14,4,17,0.27
2013-11-19,50.0,44.6,31.6,46.7,40.0,27.7,96,84,66,29.89,29.63,19,6,22,0.06
2013-11-20,39.7,27.3,15.4,30.1,19.9,9.9,96,77,29,30.51,29.90,9,1,12,0.00
2013-11-21,39.9,20.3,8.6,21.2,12.3,6.0,93,75,28,30.80,30.51,5,1,7,0.00
2013-11-22,38.0,20.3,9.4,21.7,13.7,6.7,92,78,41,30.85,30.72,5,1,6,0.00
2013-11-23,39.9,21.1,9.5,21.5,14.9,7.0,93,79,42,30.72,30.45,4,0,6,0.00
2013-11-24,44.4,23.7,12.4,24.6,17.2,10.1,93,79,41,30.48,30.35,5,0,5,0.01
2013-11-25,44.4,24.6,13.7,27.2,19.3,11.4,95,82,47,30.53,30.45,3,0,4,0.00
2013-11-26,41.2,24.5,15.4,28.5,20.4,13.5,94,85,57,30.47,30.28,2,0,3,0.00
2013-11-27,39.5,26.6,18.1,29.9,22.8,16.0,96,86,63,30.28,30.17,3,0,4,0.00
2013-11-28,46.2,25.9,14.9,31.5,21.6,12.8,95,85,55,30.31,30.21,3,0,4,0.01
2013-11-29,37.8,26.9,16.3,32.2,24.7,14.4,95,91,79,30.37,30.30,2,0,3,0.00
2013-11-30,52.2,36.4,22.5,40.2,32.4,21.0,97,86,62,30.41,30.22,10,2,14,0.03
2013-12-1,49.3,46.0,41.3,47.5,44.4,39.2,97,94,89,30.22,29.78,15,6,22,2.80
2013-12-2,43.1,33.9,21.2,41.0,30.0,19.5,95,86,74,30.00,29.76,14,4,23,0.02
2013-12-3,31.9,25.8,16.4,25.0,18.2,11.6,95,74,47,30.32,30.00,12,3,15,0.00
2013-12-4,29.8,17.5,8.2,14.3,10.6,5.4,92,76,45,30.42,30.32,7,1,11,0.00
2013-12-5,22.7,13.4,3.1,15.2,8.4,-0.1,91,81,59,30.41,30.32,5,1,7,0.00
2013-12-6,19.0,16.0,10.5,11.7,9.4,6.1,88,75,66,30.34,30.18,17,6,20,0.00
2013-12-7,21.0,10.2,-3.2,6.3,-1.0,-7.1,86,62,31,30.52,30.24,13,4,17,0.00
2013-12-8,25.8,5.7,-5.0,8.4,-0.2,-8.6,87,77,44,30.70,30.51,5,0,5,0.00
2013-12-9,26.9,12.3,1.2,18.6,7.9,-2.1,92,83,63,30.69,30.49,3,0,4,0.00
2013-12-10,33.8,21.3,12.9,29.1,18.9,10.5,94,90,82,30.52,30.45,4,0,5,0.00
2013-12-11,37.3,20.6,11.0,28.3,17.3,8.6,95,88,64,30.51,30.39,4,0,4,0.00
2013-12-12,38.3,23.7,11.9,35.8,21.7,9.8,95,92,87,30.39,30.20,10,1,15,0.02
2013-12-13,48.8,33.4,25.4,40.0,30.8,24.2,97,91,69,30.46,30.24,5,1,7,0.00
2013-12-14,51.0,37.8,27.4,40.4,33.4,26.3,98,85,64,30.47,30.34,18,3,24,0.00
2013-12-15,50.9,42.8,26.1,41.5,36.0,24.6,95,77,63,30.40,30.25,25,9,34,0.00
2013-12-16,51.5,30.2,20.9,37.8,27.0,19.2,97,89,58,30.48,30.36,4,0,7,0.01
2013-12-17,53.9,33.6,17.1,38.2,27.0,15.1,97,79,44,30.36,30.08,17,3,25,0.01
2013-12-18,47.4,35.7,20.5,38.2,28.5,17.1,96,77,39,30.09,29.87,18,3,24,0.00
2013-12-19,35.4,22.9,12.8,25.7,18.2,10.4,94,83,54,30.34,30.08,7,1,8,0.00
2013-12-20,42.7,32.3,22.7,37.0,28.6,19.6,92,86,76,30.19,29.75,23,6,32,0.11
2013-12-21,47.8,39.2,28.3,39.0,34.2,26.9,97,83,64,30.13,29.75,26,6,29,0.00
2013-12-22,48.8,42.2,35.8,40.3,37.1,32.7,92,82,72,30.29,30.12,24,4,25,0.00
2013-12-23,49.9,43.8,26.8,45.1,38.5,23.8,91,82,68,30.45,30.14,20,7,26,0.06
2013-12-24,45.9,28.1,19.4,33.2,24.1,17.7,96,86,54,30.60,30.46,3,0,4,0.01
2013-12-25,39.8,24.7,17.0,31.4,22.0,15.1,95,90,70,30.60,30.47,2,0,3,0.00
2013-12-26,44.8,26.3,17.6,34.7,23.4,15.9,96,89,66,30.48,30.35,4,0,4,0.01
2013-12-27,47.8,28.7,18.0,41.3,26.1,16.3,97,90,70,30.36,30.17,12,2,16,0.00
2013-12-28,47.9,27.3,17.4,35.8,24.1,15.5,97,89,60,30.55,30.35,3,0,4,0.01
2013-12-29,42.5,27.6,18.9,32.9,24.6,17.0,95,89,66,30.54,30.30,4,0,6,0.00
2013-12-30,41.0,32.0,27.2,39.8,29.9,25.7,97,92,82,30.32,30.19,5,0,5,0.01
2013-12-31,47.4,39.8,24.6,39.3,33.4,23.1,96,79,58,30.37,30.20,17,4,21,0.00
2014-1-1,47.6,30.4,19.9,36.8,27.7,18.2,97,90,65,30.47,30.36,4,0,4,0.01
2014-1-2,48.5,36.9,25.7,39.5,32.5,24.5,97,85,63,30.39,29.92,18,2,31,0.03